Address 0x8ff2eb74fa6935a61ab8fdf4d5eee6c20fea97ca

Txn Hash Method
Block
From
To
Value [Txn Fee]
0xaa488958fae7025d46347c5f4d407ecbf1a11f7600362f9041036c326a97e3b90xef68f27f21229772022-05-08 18:56:189 days 22 hrs ago0x8ff2eb74fa6935a61ab8fdf4d5eee6c20fea97caOUT0xc453b4e752bf050298bda29920530d6ef65270ec0 DEV0.00051401
0x63e6ab10a9bd75bd65b7c997d9fa7f7faa77fe3215fee2ca80c493c4d6cec63aApprove21229742022-05-08 18:55:369 days 22 hrs ago0x8ff2eb74fa6935a61ab8fdf4d5eee6c20fea97caOUT 0x6df060f8fb8ac209ebc2462a9466f51cc04c58a70 DEV0.0001160825
0x45b60af0c2100822ab45d52cd799b36a70ba511e90ee9fd75a3c2ac224857da60x6cb7fce621229712022-05-08 18:54:489 days 22 hrs ago0x8ff2eb74fa6935a61ab8fdf4d5eee6c20fea97caOUT0xc453b4e752bf050298bda29920530d6ef65270ec0.1 DEV0.00058766
0x33d464223654a61e13d488b052fc42d545386a80051c67cf8b3008efb9150dd3Swap Exact ETH F...21229642022-05-08 18:53:249 days 22 hrs ago0x8ff2eb74fa6935a61ab8fdf4d5eee6c20fea97caOUT0xe0d034b50402163eedecd19cdfecfbafd69eaa8e0.1 DEV0.0002509
0x5976c85176db23859e03136d6b7246195735b01de52d5905329d39d006692ff40xef68f27f21229612022-05-08 18:52:429 days 22 hrs ago0x8ff2eb74fa6935a61ab8fdf4d5eee6c20fea97caOUT0xc453b4e752bf050298bda29920530d6ef65270ec0 DEV0.000440365
0x37974408f233d0cd4adc7c03a6cdcc96a0d26ff74b3871909763662728940b0c0xef68f27f21229572022-05-08 18:51:309 days 22 hrs ago0x8ff2eb74fa6935a61ab8fdf4d5eee6c20fea97caOUT0xc453b4e752bf050298bda29920530d6ef65270ec0 DEV0.0005077525
0xc8ced8b3cc34366ce128738fad8dd6787f2099e03f972fae7e9e4a49a2178472Approve21229542022-05-08 18:50:309 days 22 hrs ago0x8ff2eb74fa6935a61ab8fdf4d5eee6c20fea97caOUT 0xc757077cdd8e91d0124aba4d6c7f15400ce95e100 DEV0.0001160825
0x83b97193a21d3b372b6a30bd3858788720549ec6bfea07521c87645a2424e2460xef68f27f21229522022-05-08 18:49:549 days 22 hrs ago0x8ff2eb74fa6935a61ab8fdf4d5eee6c20fea97caOUT0xc453b4e752bf050298bda29920530d6ef65270ec0 DEV0.00050782
0x57487acf04a16a910bfae263fb9a48f8d8361ed983ef677b1ccbe5d043862a1bApprove21229482022-05-08 18:49:069 days 22 hrs ago0x8ff2eb74fa6935a61ab8fdf4d5eee6c20fea97caOUT 0x04b99cd4ce9b22a4c5d0ad15b54f389f2916dbde0 DEV0.0001160825
0x1c98971433cb2a1177106fa9228594e02ad5d2d74f06296896c59dded248b0360xef68f27f21229442022-05-08 18:48:009 days 22 hrs ago0x8ff2eb74fa6935a61ab8fdf4d5eee6c20fea97caOUT0xc453b4e752bf050298bda29920530d6ef65270ec0 DEV0.00051291
0xd9800e342322fb81ef57653492f4d6dffef03a2485492ed4f43dc59c1a11c93fApprove21229422022-05-08 18:47:309 days 22 hrs ago0x8ff2eb74fa6935a61ab8fdf4d5eee6c20fea97caOUT 0xb6f4e7dcb7695b6c672ce3467f946435dd286c480 DEV0.0001160825
0xfb63bf057cfdf0cd7e9fdf91f8b540a4b661b8ef4c692e507013f064bc5b36300xef68f27f21229132022-05-08 18:39:009 days 22 hrs ago0x8ff2eb74fa6935a61ab8fdf4d5eee6c20fea97caOUT0xc453b4e752bf050298bda29920530d6ef65270ec0 DEV0.00051326
0x55d98a654925de53f8a9a362fade5d563bb15cccd7675675f31a599b43b1d3e5Approve21229112022-05-08 18:38:309 days 22 hrs ago0x8ff2eb74fa6935a61ab8fdf4d5eee6c20fea97caOUT 0xca3b7d7f48817788ff070d8ac883fc2b406f46160 DEV0.0001160825
0x8995f1a2e0db09f5e695b683d19b944f2091bf151fb81cae3893641abf6ad9300xef68f27f21224082022-05-08 16:17:4210 days 49 mins ago0x8ff2eb74fa6935a61ab8fdf4d5eee6c20fea97caOUT0xc453b4e752bf050298bda29920530d6ef65270ec0 DEV0.000440365
0xaa460d9b1246d27f86a3e4ae4719ca875ab8a6ba6dd1427fb24b8b661e7e6fdbApprove21224062022-05-08 16:17:0010 days 49 mins ago0x8ff2eb74fa6935a61ab8fdf4d5eee6c20fea97caOUT 0xabe066661c040e965975d8483ba510264d59dcd90 DEV0.0001160825
0xc2313dbdca26d11c1aba9d7cfd0cad2f10e2ef652b73fc15da2b5dc52cc7206e0x7deeae3d21224012022-05-08 16:15:3610 days 51 mins ago0x8ff2eb74fa6935a61ab8fdf4d5eee6c20fea97caOUT0xc453b4e752bf050298bda29920530d6ef65270ec0.000998 DEV0.0005161075
0x68215b7f3e460f05a625719e23cbb2c41837daae24d16563e462b7ebcb316b27Approve21223952022-05-08 16:14:0010 days 52 mins ago0x8ff2eb74fa6935a61ab8fdf4d5eee6c20fea97caOUT 0xd909178cc99d318e4d46e7e66a972955859670e10 DEV0.00011586
0x4afa914f9430c84b46db77321e45b6f907b4ddc8d18d6c9f75fe8957dd2108580x7deeae3d21223862022-05-08 16:11:4210 days 55 mins ago0x8ff2eb74fa6935a61ab8fdf4d5eee6c20fea97caOUT0xc453b4e752bf050298bda29920530d6ef65270ec0.000013786530431 DEV0.0005210425
0x75f503b4febe2b6d88f3ec43e7af1cd51b3f2fcef500c942e3e8a69213ab92d80x7deeae3d21223762022-05-08 16:08:3010 days 58 mins ago0x8ff2eb74fa6935a61ab8fdf4d5eee6c20fea97caOUT0xc453b4e752bf050298bda29920530d6ef65270ec0.00001 DEV0.000516065
0x171b6c407690e51e6e2191f3908a138102b260ca374e821fb529f520d327d094Swap Exact ETH F...21223582022-05-08 16:04:0010 days 1 hr ago0x8ff2eb74fa6935a61ab8fdf4d5eee6c20fea97caOUT0xe0d034b50402163eedecd19cdfecfbafd69eaa8e0.00001 DEV0.0002896025
0x881a8b5c2bd23ce1cad90dda38c08884915e91acafc53cab7dc27526b1108ffc0xbb6eea2f21223532022-05-08 16:02:3610 days 1 hr ago0x8ff2eb74fa6935a61ab8fdf4d5eee6c20fea97caOUT0xc453b4e752bf050298bda29920530d6ef65270ec0 DEV0.0004958975
0xdce88ce3c168c9782a4ffc972e2eded7b495dccc7691c82f86125d931d4d3027Approve21223522022-05-08 16:01:5410 days 1 hr ago0x8ff2eb74fa6935a61ab8fdf4d5eee6c20fea97caOUT 0xe75f9ae61926ff1d27d16403c938b4cd15c756d50 DEV0.0001166825
0x6b14be214f371a9650618c27d4fd90a9f5259bf2893849bd3ba92f518575b3300x7deeae3d21223392022-05-08 15:58:3010 days 1 hr ago0x8ff2eb74fa6935a61ab8fdf4d5eee6c20fea97caOUT0xc453b4e752bf050298bda29920530d6ef65270ec0.000997 DEV0.00052137
0x731c0ed4531bb1a2c0301f4cbb2f65c1c17b94c26dde953e4dc57413cc4ef719Swap Exact ETH F...21223282022-05-08 15:55:2410 days 1 hr ago0x8ff2eb74fa6935a61ab8fdf4d5eee6c20fea97caOUT0xe0d034b50402163eedecd19cdfecfbafd69eaa8e0.00001 DEV0.000290535
0x1892a2efcd4ac5a8547d14f5158e78dcf185bde9b7ed840a9b9847b60843d6faSwap Exact ETH F...21223232022-05-08 15:54:1810 days 1 hr ago0x8ff2eb74fa6935a61ab8fdf4d5eee6c20fea97caOUT0xe0d034b50402163eedecd19cdfecfbafd69eaa8e0.00001 DEV0.00029051
[ Download CSV Export 
Latest 5 internal transactions
Parent Txn Hash Block From To Value
0xaa488958fae7025d46347c5f4d407ecbf1a11f7600362f9041036c326a97e3b921229772022-05-08 18:56:189 days 22 hrs ago 0xc453b4e752bf050298bda29920530d6ef65270ec0x8ff2eb74fa6935a61ab8fdf4d5eee6c20fea97ca0.09969439403199555 DEV
0x37974408f233d0cd4adc7c03a6cdcc96a0d26ff74b3871909763662728940b0c21229572022-05-08 18:51:309 days 22 hrs ago 0xc453b4e752bf050298bda29920530d6ef65270ec0x8ff2eb74fa6935a61ab8fdf4d5eee6c20fea97ca0.000009999999999999 DEV
0x83b97193a21d3b372b6a30bd3858788720549ec6bfea07521c87645a2424e24621229522022-05-08 18:49:549 days 22 hrs ago 0xc453b4e752bf050298bda29920530d6ef65270ec0x8ff2eb74fa6935a61ab8fdf4d5eee6c20fea97ca0.000998492429488843 DEV
0x1c98971433cb2a1177106fa9228594e02ad5d2d74f06296896c59dded248b03621229442022-05-08 18:48:009 days 22 hrs ago 0xc453b4e752bf050298bda29920530d6ef65270ec0x8ff2eb74fa6935a61ab8fdf4d5eee6c20fea97ca0.00001378653043134 DEV
0xfb63bf057cfdf0cd7e9fdf91f8b540a4b661b8ef4c692e507013f064bc5b363021229132022-05-08 18:39:009 days 22 hrs ago 0xc453b4e752bf050298bda29920530d6ef65270ec0x8ff2eb74fa6935a61ab8fdf4d5eee6c20fea97ca0.000996999999999999 DEV
[ Download CSV Export 
Loading

Contract Name:
0

Compiler Version
0

Optimization Enabled:
0

Other Settings:
-NA-
Block Transaction Gas Used Reward
Age Block Fee Address BC Fee Address Voting Power Jailed Incoming
Block Uncle Number Difficulty Gas Used Reward
Loading